Weather in Korsakovka

Russia / Primorsky Krai     43°46′48″N   131°41′44″E
temp.,
°C
wind,
m/s
gust,
m/s
humid.,
%
clouds,
%
prec.,
mm/h
press.,
hPa
HPBL,
m
11 april, sun
sun1101:00+4s613804 0.0 1028345
04:00+3s513865 0.0 1028347
07:00+3s512916 0.0 1028319
10:00+8s81368100 0.0 1027479
13:00+13s71150100 0.0 1026730
16:00+13sse10145063 0.0 1024590
19:00+9s9177736 0.0 1024419
22:00+6s7138782 0.1 1026368
12 april, mon
mon1201:00+6s81490100 0.1 1025409
04:00+6s81491100 0.1 1024405
07:00+6s81391100 0.0 1024370
10:00+8s91681100 0.0 1022534
13:00+10s111774100 0.0 1020680
16:00+10s101572100 0.0 1017692
19:00+8sse71681100 0.0 1015543
22:00+7s61787100 0.0 1015677
13 april, tue
tue1301:00+7s51391100 0.1 1012527
04:00+6s41094100 0.1 1010300
07:00+7wnw1791100 0.4 1008296
10:00+4n7861100 1.1 10111068
13:00+6n81143100 0.4 10111971
16:00+8n8112294 0.4 10102735
19:00+6nnw811233 0.0 10112582
22:00+3nnw610285 0.0 1013835
14 april, wed
wed1401:00+1nw2638100 0.0 1014200
04:00−1w23471 0.0 101459
07:00−1wnw24460 0.0 1015118
10:00+4wnw48275 0.0 10151940
13:00+8wnw71021100 0.0 10143507
16:00+9nw61118100 0.0 10123265
19:00+9nw482189 0.0 1013836
22:00+4ssw3448100 0.0 101589
15 april, thu
thu1501:00+2sse22585 0.0 101640
04:00+1s34691 0.0 101681
07:000s23708 0.0 101670
10:00+7s71153100 0.0 1014529
13:00+10s91564100 0.0 1012933
16:00+10s11176053 0.0 10091129
19:00+8s11207794 0.0 10081125
22:00+7s101776100 0.0 10091052